Theta_e
311 310 309 310 310 311 312 314 315 315 317 317 316 314 311 310 308 306 303 297 297 297 296 296 295 295 295
308 306 305 306 307 308 309 310 312 314 314 315 313 311 310 309 306 304 300 297 296 295 294 293 292 293 293
305 304 304 304 304 305 306 307 307 306 308 307 304 304 305 303 302 301 298 295 293 292 291 289 291 291 291
305 302 302 301 302 302 302 303 301 301 301 302 303 303 301 299 298 297 295 293 291 289 288 288 289 289 289
303 300 298 297 299 299 297 299 297 298 298 296 297 297 296 296 296 295 294 291 289 287 288 288 288 288 288
304 303 300 299 299 298 294 293 293 294 296 293 294 294 294 293 294 292 290 288 286 286 287 287 286 286 286
304 304 301 300 300 296 295 296 293 293 294 288 290 290 290 290 290 288 286 286 288 287 286 284 284 285 285
308 306 307 306 305 300 296 293 291 290 292 287 287 288 288 287 288 286 285 287 286 285 284 283 284 284 284
308 307 306 306 304 298 292 291 286 287 290 288 286 286 287 286 285 284 286 286 284 284 283 283 282 283 282
304 304 302 302 303 300 296 294 286 286 288 288 285 284 284 284 284 286 285 284 283 283 282 282 282 282 282
297 296 294 292 294 295 294 294 292 287 289 287 284 285 286 283 284 285 284 283 282 282 281 281 282 283 282
290 288 289 288 291 291 291 293 293 294 287 286 285 285 285 284 283 282 282 282 282 281 281 281 282 281 282
288 286 286 286 287 288 288 288 286 284 284 283 285 285 285 284 282 282 282 281 280 280 281 281 281 281 280
285 284 284 285 284 285 283 282 282 281 282 282 282 283 283 282 282 281 281 282 281 280 280 280 280 281 281
284 284 284 283 283 283 282 282 281 280 279 280 281 282 281 282 281 281 281 280 280 279 279 279 280 281 281
284 283 283 283 282 283 283 282 282 281 280 279 280 280 280 280 281 280 280 279 279 279 279 278 279 279 279
283 283 282 283 283 283 282 281 280 280 279 280 281 283 281 279 279 278 278 278 278 279 279 279 278 279 279
Wind_Speed
7 10 10 9 11 14 14 17 19 18 25 28 23 37 40 37 34 27 19 14 11 10 8 7 7 8 9
12 10 9 9 11 11 10 11 12 18 25 30 29 35 35 34 28 22 16 14 12 11 8 8 6 8 9
9 14 11 12 13 12 13 15 17 20 24 29 31 27 24 20 18 16 14 13 12 11 10 8 7 7 8
15 10 12 14 18 19 18 21 22 20 19 19 20 20 18 17 16 13 14 13 11 9 8 8 8 8 9
12 8 11 12 20 20 17 25 21 22 22 19 19 18 15 15 16 15 14 12 11 9 8 8 8 8 10
15 13 17 17 21 28 25 14 4 18 22 17 15 16 16 15 17 14 12 12 8 9 10 9 8 10 12
23 21 20 28 30 24 24 17 11 23 23 14 15 14 14 14 13 12 11 9 10 11 9 8 10 11 13
31 30 32 34 36 33 29 22 16 24 18 6 15 13 16 13 12 11 10 10 11 8 8 9 12 14 16
31 30 32 34 35 31 28 24 6 9 15 9 14 10 9 8 7 11 10 10 8 8 9 11 13 13 17
19 19 24 29 29 35 37 26 15 5 18 8 19 11 6 9 7 12 11 9 8 9 10 12 10 16 17
29 29 26 26 24 21 26 31 23 7 24 13 16 13 6 7 10 10 8 6 5 6 7 8 11 13 16
33 25 31 26 27 24 23 22 12 14 29 12 13 17 10 8 6 9 6 5 6 4 7 11 12 11 11
25 26 27 32 33 31 27 25 27 23 18 10 19 17 13 12 9 8 6 4 1 5 9 11 12 11 14
29 31 33 33 32 31 31 30 31 23 18 17 17 16 16 14 12 11 5 3 3 6 10 10 10 8 10
33 30 28 28 25 26 28 20 21 18 18 16 15 15 16 16 11 7 4 3 5 8 9 12 11 8 9
29 28 26 26 27 24 23 24 22 19 19 17 19 20 17 12 8 6 4 4 7 8 9 12 12 12 11
29 27 27 25 25 22 23 24 21 20 17 14 13 10 4 2 4 6 6 6 7 8 9 11 14 17 13
Wind_Direction
194 238 241 234 228 233 233 234 231 222 215 202 201 187 181 183 194 200 203 198 213 216 217 218 238 263 278
212 223 221 223 217 213 209 221 226 211 199 194 192 190 193 193 197 202 199 205 216 223 214 221 246 268 275
179 211 209 212 192 182 171 166 160 161 174 172 167 171 179 180 193 197 193 203 214 214 221 236 253 265 286
182 184 191 192 189 162 148 153 145 150 153 163 169 174 184 182 177 183 191 201 202 218 236 242 255 282 297
159 162 174 165 181 173 153 152 147 155 153 150 159 164 165 167 173 189 203 205 217 223 235 252 272 287 299
184 190 193 193 177 173 160 149 134 170 160 154 170 165 170 174 185 192 200 212 225 233 238 249 281 296 307
194 194 186 192 188 171 174 168 157 174 174 156 168 168 177 191 188 199 206 213 200 218 243 272 289 296 298
212 209 223 220 210 193 177 161 144 163 171 129 177 181 188 183 194 207 207 192 207 232 259 276 292 300 303
227 219 218 216 200 185 160 146 111 162 175 149 167 153 166 174 211 203 187 187 217 241 267 289 298 302 307
189 189 190 192 203 199 179 159 135 125 181 134 150 145 145 177 188 177 193 215 236 263 280 297 305 306 311
149 147 149 156 168 176 171 175 146 118 171 145 164 160 118 138 166 183 201 211 254 268 291 302 308 310 311
132 128 137 138 140 149 156 156 145 148 154 153 159 167 138 138 144 176 176 204 251 284 303 312 317 313 304
125 124 130 132 136 132 129 125 122 125 143 151 159 158 150 137 138 156 156 184 257 321 319 322 320 321 317
119 124 126 128 125 132 127 125 119 113 119 126 134 143 125 123 131 123 96 107 331 324 314 326 329 323 324
127 125 120 120 118 129 127 127 117 120 113 117 121 124 119 116 103 99 79 55 329 324 336 338 352 350 316
122 122 123 120 119 120 123 115 113 117 119 123 125 114 103 86 99 96 68 359 349 357 354 341 335 336 326
119 120 120 119 120 116 116 116 109 119 116 128 132 137 118 104 106 65 43 16 2 3 356 343 314 331 336